Roda de Ter - l'Esquerda





Hora UTC 16:10
Temperatura 31.3 ºC
Humitat 44.0 %
Pressió 1017.0 hPa
Pluja 0.0 mm
Velocitat vent 0.0 km/h
Direcció vent W

Dades diàries 2020-07-05



Hora UTC (hivern +1h; estiu +2h)
Temperatura (ºC) Humitat (%) Pressió (hPa) Velocitat vent (km/h) Precipitació (mm)
Hora UTC Aire Humitat Pressió Vel. Dir. Vel. Max Dir. Intent. màx 5 min.
00:05 16.9 92.0 1021.9 0.0 SE 0.0 0.0
00:10 17.0 92.0 1021.9 0.0 SE 3.2 0.0
00:15 16.9 92.0 1021.8 1.6 SE 1.6 0.0
00:20 16.7 92.0 1021.8 0.0 SE 1.6 0.0
00:25 16.8 92.0 1021.7 0.0 SE 0.0 0.0
00:30 16.7 92.0 1021.6 0.0 SE 0.0 0.0
00:35 16.6 92.0 1021.5 0.0 SE 1.6 0.0
00:40 16.5 92.0 1021.5 0.0 SE 0.0 0.0
00:45 16.5 92.0 1021.5 0.0 SE 0.0 0.0
00:50 16.6 92.0 1021.5 0.0 SE 0.0 0.0
00:55 16.4 92.0 1021.4 0.0 SE 1.6 0.0
01:00 16.5 92.0 1021.4 1.6 SE 1.6 0.0
01:05 16.6 93.0 1021.3 1.6 SE 1.6 0.0
01:10 16.1 92.0 1021.3 1.6 SE 3.2 0.0
01:15 16.2 93.0 1021.3 3.2 SE 3.2 0.0
01:20 16.3 93.0 1021.2 1.6 SE 4.8 0.0
01:25 16.3 93.0 1021.1 1.6 SE 4.8 0.0
01:30 16.3 93.0 1021.3 1.6 SE 4.8 0.0
01:35 16.2 93.0 1021.1 0.0 SE 3.2 0.0
01:40 16.0 92.0 1021.1 1.6 SE 1.6 0.0
01:45 15.7 92.0 1020.9 0.0 SE 1.6 0.0
01:50 15.4 92.0 1020.9 0.0 SE 1.6 0.0
01:55 15.7 93.0 1020.8 1.6 SE 3.2 0.0
02:00 15.7 93.0 1020.8 1.6 SE 3.2 0.0
02:05 15.6 93.0 1020.8 1.6 SE 3.2 0.0
02:10 15.8 93.0 1020.9 0.0 SE 3.2 0.0
02:15 15.6 93.0 1020.9 0.0 SE 1.6 0.0
02:20 15.7 93.0 1020.8 0.0 SE 0.0 0.0
02:25 15.7 93.0 1020.8 0.0 SE 0.0 0.0
02:30 15.8 93.0 1020.7 1.6 SE 1.6 0.0
02:35 15.7 93.0 1020.7 1.6 SE 4.8 0.0
02:40 15.7 93.0 1020.8 3.2 SSE 6.4 0.0
02:45 15.6 93.0 1020.7 3.2 SSE 4.8 0.0
02:50 15.6 93.0 1020.6 0.0 SSE 3.2 0.0
02:55 15.6 93.0 1020.6 1.6 SSE 3.2 0.0
03:00 15.3 93.0 1020.7 1.6 SSE 3.2 0.0
03:05 15.4 93.0 1020.6 0.0 SSE 3.2 0.0
03:10 15.4 93.0 1020.7 0.0 SSE 3.2 0.0
03:15 15.3 93.0 1020.7 0.0 SSE 0.0 0.0
03:20 15.4 93.0 1020.7 0.0 SSE 0.0 0.0
03:25 15.3 93.0 1020.6 0.0 SSE 3.2 0.0
03:30 15.2 93.0 1020.6 0.0 SSE 3.2 0.0
03:35 15.1 93.0 1020.7 0.0 SSE 3.2 0.0
03:40 15.2 93.0 1020.7 0.0 SSE 1.6 0.0
03:45 15.2 93.0 1020.7 1.6 SSE 1.6 0.0
03:50 15.2 93.0 1020.8 0.0 SSE 1.6 0.0
03:55 15.2 93.0 1020.7 0.0 SSE 1.6 0.0
04:00 15.2 93.0 1020.8 0.0 SSE 0.0 0.0
04:05 15.1 93.0 1020.7 0.0 SSE 0.0 0.0
04:10 15.0 93.0 1020.8 0.0 SSE 0.0 0.0
04:15 14.9 93.0 1020.7 0.0 SSE 1.6 0.0
04:20 14.9 93.0 1020.7 1.6 SSE 3.2 0.0
04:25 14.9 93.0 1020.8 3.2 SSE 3.2 0.0
04:30 14.9 93.0 1020.8 0.0 SSE 4.8 0.0
04:35 15.1 94.0 1020.8 0.0 SSE 3.2 0.0
04:40 14.8 93.0 1020.8 0.0 SSE 3.2 0.0
04:45 14.8 93.0 1020.9 0.0 SSE 1.6 0.0
04:50 15.0 93.0 1020.9 0.0 SSE 1.6 0.0
04:55 15.2 94.0 1020.8 0.0 SSE 0.0 0.0
05:00 15.3 94.0 1020.8 0.0 SSE 0.0 0.0
05:05 15.4 94.0 1020.8 0.0 SSE 0.0 0.0
05:10 15.6 94.0 1020.9 0.0 SSE 1.6 0.0
05:15 15.8 94.0 1021.0 0.0 SSE 1.6 0.0
05:20 15.8 94.0 1020.9 0.0 SSE 1.6 0.0
05:25 15.8 94.0 1021.0 0.0 SSE 1.6 0.0
05:30 15.9 93.0 1021.0 0.0 SSE 1.6 0.0
05:35 15.8 94.0 1021.0 0.0 SSE 1.6 0.0
05:40 15.9 94.0 1021.0 0.0 SSE 3.2 0.0
05:45 16.1 94.0 1021.0 1.6 SSE 3.2 0.0
05:50 16.1 94.0 1021.0 4.8 S 4.8 0.0
05:55 16.2 94.0 1021.0 1.6 S 6.4 0.0
06:00 16.3 94.0 1021.0 1.6 ENE 3.2 0.0
06:05 16.4 94.0 1020.9 0.0 E 3.2 0.0
06:10 16.4 94.0 1021.0 1.6 E 3.2 0.0
06:15 16.4 94.0 1021.0 1.6 E 3.2 0.0
06:20 16.3 94.0 1021.0 0.0 E 1.6 0.0
06:25 16.3 94.0 1021.0 1.6 E 1.6 0.0
06:30 16.3 94.0 1021.1 0.0 E 1.6 0.0
06:35 16.3 93.0 1021.1 0.0 E 1.6 0.0
06:40 16.3 93.0 1021.1 0.0 E 1.6 0.0
06:45 16.4 93.0 1021.1 0.0 E 1.6 0.0
06:50 16.8 93.0 1021.2 0.0 E 1.6 0.0
06:55 17.2 93.0 1021.2 1.6 E 1.6 0.0
07:00 17.4 93.0 1021.2 0.0 E 3.2 0.0
07:05 17.3 91.0 1021.2 0.0 E 3.2 0.0
07:10 17.7 92.0 1021.1 1.6 E 3.2 0.0
07:15 18.3 91.0 1021.2 1.6 E 1.6 0.0
07:20 18.7 89.0 1021.2 1.6 E 3.2 0.0
07:25 19.1 86.0 1021.3 1.6 E 3.2 0.0
07:30 19.3 85.0 1021.3 1.6 E 3.2 0.0
07:35 19.3 83.0 1021.4 1.6 E 3.2 0.0
07:40 19.8 82.0 1021.3 1.6 E 3.2 0.0
07:45 19.8 81.0 1021.3 0.0 E 3.2 0.0
07:50 20.2 80.0 1021.2 0.0 SSE 3.2 0.0
07:55 20.3 80.0 1021.2 1.6 SSE 4.8 0.0
08:00 20.6 82.0 1021.3 0.0 SW 4.8 0.0
08:05 21.3 78.0 1021.2 1.6 SW 3.2 0.0
08:10 21.3 76.0 1021.2 1.6 SW 3.2 0.0
08:15 21.4 77.0 1021.2 0.0 SW 3.2 0.0
08:20 21.7 76.0 1021.1 1.6 SSE 3.2 0.0
08:25 22.2 79.0 1021.1 0.0 W 3.2 0.0
08:30 22.3 76.0 1021.1 1.6 W 4.8 0.0
08:35 22.4 77.0 1021.0 1.6 SW 4.8 0.0
08:40 22.7 74.0 1020.9 0.0 SW 4.8 0.0
08:45 23.0 74.0 1020.8 3.2 SE 4.8 0.0
08:50 23.8 70.0 1020.8 1.6 SE 4.8 0.0
08:55 23.7 70.0 1020.7 0.0 W 3.2 0.0
09:00 24.0 68.0 1020.6 3.2 NNE 6.4 0.0
09:05 24.4 69.0 1020.6 1.6 E 6.4 0.0
09:10 24.4 65.0 1020.6 1.6 NE 4.8 0.0
09:15 24.6 68.0 1020.5 1.6 S 4.8 0.0
09:20 24.6 66.0 1020.6 1.6 NE 4.8 0.0
09:25 24.9 63.0 1020.5 1.6 N 4.8 0.0
09:30 25.7 64.0 1020.6 0.0 NNW 4.8 0.0
09:35 25.9 58.0 1020.6 0.0 NW 4.8 0.0
09:40 25.8 64.0 1020.5 3.2 NNW 4.8 0.0
09:45 26.2 60.0 1020.5 1.6 WNW 6.4 0.0
09:50 26.1 66.0 1020.4 0.0 W 6.4 0.0
09:55 26.6 59.0 1020.4 3.2 WSW 4.8 0.0
10:00 26.9 60.0 1020.5 1.6 WSW 4.8 0.0
10:05 26.6 56.0 1020.5 3.2 WSW 4.8 0.0
10:10 27.7 61.0 1020.4 3.2 ESE 4.8 0.0
10:15 27.6 56.0 1020.3 1.6 E 6.4 0.0
10:20 27.6 58.0 1020.3 3.2 NE 6.4 0.0
10:25 27.4 56.0 1020.3 1.6 E 6.4 0.0
10:30 27.3 57.0 1020.2 1.6 ESE 6.4 0.0
10:35 27.6 58.0 1020.1 3.2 E 8.0 0.0
10:40 27.8 55.0 1020.1 0.0 NE 8.0 0.0
10:45 27.8 55.0 1020.1 1.6 NE 6.4 0.0
10:50 27.7 57.0 1020.0 3.2 S 6.4 0.0
10:55 27.6 55.0 1020.0 0.0 SE 4.8 0.0
11:00 27.8 56.0 1020.0 3.2 SSE 6.4 0.0
11:05 28.4 55.0 1019.9 1.6 NE 6.4 0.0
11:10 28.6 56.0 1019.8 1.6 E 6.4 0.0
11:15 28.7 52.0 1019.8 3.2 ENE 4.8 0.0
11:20 28.7 52.0 1019.8 1.6 NNW 8.0 0.0
11:25 29.3 54.0 1019.7 3.2 SW 8.0 0.0
11:30 29.9 58.0 1019.6 3.2 WNW 11.3 0.0
11:35 29.9 49.0 1019.6 3.2 WSW 8.0 0.0
11:40 29.5 55.0 1019.5 3.2 NNW 6.4 0.0
11:45 29.7 52.0 1019.5 6.4 N 9.7 0.0
11:50 28.9 50.0 1019.5 0.0 NNW 9.7 0.0
11:55 29.5 54.0 1019.4 0.0 WNW 9.7 0.0
12:00 30.4 53.0 1019.4 8.0 NNW 14.5 0.0
12:05 30.3 48.0 1019.3 4.8 W 14.5 0.0
12:10 30.7 48.0 1019.3 4.8 WSW 8.0 0.0
12:15 30.2 47.0 1019.2 1.6 SE 8.0 0.0
12:20 30.3 48.0 1019.0 3.2 SW 8.0 0.0
12:25 30.7 44.0 1019.0 11.3 WSW 16.1 0.0
12:30 30.6 46.0 1019.0 3.2 SSW 16.1 0.0
12:35 30.5 43.0 1019.0 3.2 SSE 12.9 0.0
12:40 31.0 41.0 1018.9 1.6 NNW 8.0 0.0
12:45 31.1 42.0 1018.9 4.8 WSW 17.7 0.0
12:50 31.4 42.0 1018.9 4.8 WSW 17.7 0.0
12:55 31.3 42.0 1018.9 6.4 WSW 11.3 0.0
13:00 31.0 46.0 1018.8 1.6 NW 14.5 0.0
13:05 31.2 41.0 1018.9 3.2 NW 14.5 0.0
13:10 31.3 39.0 1018.7 1.6 W 14.5 0.0
13:15 31.1 42.0 1018.7 4.8 NW 11.3 0.0
13:20 30.9 45.0 1018.6 3.2 WSW 9.7 0.0
13:25 30.6 41.0 1018.6 3.2 SSW 9.7 0.0
13:30 31.0 45.0 1018.5 1.6 SSW 6.4 0.0
13:35 30.9 43.0 1018.5 1.6 NW 6.4 0.0
13:40 31.5 44.0 1018.5 9.7 SSW 17.7 0.0
13:45 31.2 40.0 1018.4 9.7 SW 17.7 0.0
13:50 31.1 39.0 1018.3 1.6 NNW 11.3 0.0
13:55 31.1 42.0 1018.3 4.8 NW 6.4 0.0
14:00 31.3 42.0 1018.3 6.4 SW 16.1 0.0
14:05 31.2 47.0 1018.2 6.4 SW 16.1 0.0
14:10 31.4 41.0 1018.1 6.4 N 9.7 0.0
14:15 31.5 44.0 1018.1 6.4 WSW 12.9 0.0
14:20 31.5 41.0 1018.1 1.6 SW 14.5 0.0
14:25 31.6 46.0 1017.9 0.0 WNW 9.7 0.0
14:30 31.9 40.0 1017.9 0.0 WNW 6.4 0.0
14:35 31.7 42.0 1017.9 1.6 S 6.4 0.0
14:40 31.1 43.0 1017.8 1.6 E 6.4 0.0
14:45 31.9 43.0 1017.7 8.0 WNW 12.9 0.0
14:50 31.9 44.0 1017.8 4.8 WSW 12.9 0.0
14:55 31.8 41.0 1017.7 1.6 W 11.3 0.0
15:00 31.6 42.0 1017.8 6.4 WSW 11.3 0.0
15:05 31.6 38.0 1017.6 4.8 NW 11.3 0.0
15:10 31.4 39.0 1017.6 1.6 WNW 9.7 0.0
15:15 31.7 39.0 1017.6 3.2 NNW 9.7 0.0
15:20 30.9 40.0 1017.5 1.6 ENE 6.4 0.0
15:25 30.9 39.0 1017.4 3.2 ESE 6.4 0.0
15:30 31.1 41.0 1017.3 0.0 E 6.4 0.0
15:35 31.1 42.0 1017.2 3.2 NNW 4.8 0.0
15:40 31.1 42.0 1017.2 6.4 NW 12.9 0.0
15:45 30.7 39.0 1017.2 0.0 NW 12.9 0.0
15:50 31.2 42.0 1017.1 0.0 WNW 4.8 0.0
15:55 31.6 46.0 1017.0 3.2 W 6.4 0.0
16:00 31.6 44.0 1016.9 8.0 WSW 12.9 0.0
16:05 31.2 45.0 1017.0 4.8 WSW 14.5 0.0
16:10 31.3 44.0 1017.0 0.0 W 14.5 0.0
Màxima 32.2 94.0 1021.9 11.3 WSW 17.7 0.0
Mínima 14.8 38.0 1016.9
Total 0.0